Temperature
25 24 24 23 22 21 20 20 20 20 20 19 19 19 19 19 19 19 19 19 19 19 19 19 19 19 19 19 19 19 19 19 19 19 19 20 20 20 20 20 19 19 19
26 25 24 23 22 21 20 20 20 20 20 20 20 19 20 20 20 20 19 19 19 19 19 19 19 19 19 19 19 19 19 19 19 19 19 19 20 20 20 20 20 19 19
26 25 24 23 22 22 21 21 20 20 20 20 20 20 20 20 20 20 20 19 19 19 19 19 19 19 19 19 19 19 19 19 19 19 19 19 20 20 20 20 20 20 20
27 25 24 24 23 22 21 21 21 20 20 20 20 20 20 20 20 20 20 20 19 19 19 19 19 19 19 19 19 19 19 19 19 19 19 19 19 19 19 20 20 20 20
27 26 25 24 24 23 22 21 21 20 20 20 20 20 20 20 20 20 20 20 19 19 19 19 19 19 19 19 19 19 19 19 19 19 19 19 19 19 19 19 20 20 20
27 26 25 24 24 23 22 21 21 21 20 20 20 20 20 20 20 20 20 20 19 19 19 19 19 19 19 19 19 19 19 19 19 19 19 19 19 19 19 19 19 19 20
27 26 25 24 24 24 23 22 21 21 21 20 20 20 20 20 20 20 19 19 19 19 19 19 19 19 19 19 19 19 19 19 19 19 19 19 19 19 19 19 19 19 19
27 26 25 25 24 24 23 22 22 21 21 20 20 20 20 20 19 19 19 19 19 19 19 19 19 19 19 18 18 18 18 18 18 18 18 18 18 18 18 18 19 19 19
27 26 25 24 24 23 23 22 22 21 21 20 20 20 20 20 19 19 19 19 19 19 19 19 19 19 19 18 18 18 18 18 18 18 18 18 18 18 18 18 18 18 18
27 26 25 24 23 23 22 22 21 21 21 20 20 20 20 20 20 19 19 19 19 19 19 19 19 18 18 18 18 18 18 18 18 18 18 18 18 18 18 18 18 18 18
26 26 25 24 24 23 22 22 21 21 20 20 20 20 19 19 19 19 19 19 19 19 19 19 18 18 18 18 18 18 18 18 18 18 18 18 18 18 18 18 18 17 17
26 25 25 24 23 23 22 22 21 21 20 20 20 20 19 19 19 19 19 19 19 18 18 18 18 18 18 18 18 18 17 17 17 17 17 17 17 17 17 17 17 17 17
25 25 24 24 23 22 22 21 21 21 20 20 19 19 19 19 19 19 19 19 18 18 18 18 18 18 18 18 17 17 17 17 17 17 17 17 17 17 17 17 17 17 17
25 24 24 23 22 22 22 21 21 20 20 20 19 19 19 19 18 18 18 18 18 18 18 17 17 17 17 17 17 17 17 17 17 17 17 17 17 17 17 17 17 17 17
25 24 23 23 22 22 21 21 20 20 20 19 19 18 18 18 18 18 18 18 17 17 17 17 17 17 17 17 17 17 17 17 17 16 16 16 16 16 16 16 16 16 16
24 23 23 22 22 21 21 21 20 20 19 19 19 18 18 18 18 17 17 17 17 17 17 17 17 16 16 16 16 16 16 16 16 16 16 16 16 16 16 16 16 16 16
24 23 23 22 21 21 20 20 20 20 19 19 18 18 18 18 17 17 17 17 17 17 16 16 16 16 16 16 16 16 16 16 16 16 15 15 15 15 15 16 16 16 16
23 23 22 21 21 20 20 19 19 19 19 19 18 18 18 17 17 17 17 16 16 16 16 16 16 16 15 15 15 15 15 15 15 15 15 15 15 15 15 15 15 15 15
23 22 22 21 20 20 19 19 19 18 18 18 18 17 17 17 17 16 16 16 16 16 16 15 15 15 15 15 15 15 15 15 15 15 15 15 15 15 15 15 15 15 15
22 21 21 20 20 19 19 19 18 18 17 17 17 17 16 16 16 16 16 15 15 15 15 15 15 15 15 15 15 15 14 14 14 14 14 14 14 14 14 14 14 14 14
21 21 20 20 19 18 18 18 18 17 17 16 16 16 16 16 16 15 15 15 15 15 15 15 15 15 15 14 14 14 14 14 14 14 14 14 14 14 14 14 14 13 14
20 20 19 19 18 18 17 17 17 17 16 16 16 16 15 15 15 15 15 15 15 15 15 15 15 15 14 14 14 14 14 14 13 13 13 13 13 13 13 13 13 13 13
19 19 18 18 17 17 17 16 16 16 16 15 15 15 15 15 14 14 14 14 14 14 14 14 14 14 14 14 14 14 13 13 13 13 13 13 13 13 13 13 13 13 13
19 18 18 17 17 17 16 16 16 15 15 15 15 15 14 14 14 14 14 14 14 14 14 14 14 13 13 13 13 13 13 13 12 12 12 12 12 12 12 12 12 12 12
18 17 17 17 16 16 16 15 15 15 15 14 14 14 14 14 14 14 14 14 14 13 13 13 13 13 13 12 12 12 12 12 12 12 12 12 12 12 12 12 12 12 12
17 17 16 16 16 16 15 15 15 15 14 14 14 14 14 14 14 14 13 13 13 13 13 13 13 12 12 12 12 12 12 12 11 11 11 12 11 11 11 12 11 11 11
Wind_Speed
14 14 13 14 13 11 10 9 8 7 6 4 4 4 4 4 4 4 5 4 4 4 2 3 1 2 1 1 2 2 4 3 3 3 4 3 4 4 4 3 2 3 5
14 14 14 14 14 12 10 9 9 9 7 6 4 4 4 4 3 2 3 4 4 4 4 3 3 2 2 2 2 2 3 3 3 2 2 2 2 2 4 3 3 3 2
15 15 14 14 13 13 12 11 9 9 8 7 5 4 3 2 2 3 3 4 4 4 3 3 4 3 3 2 3 2 3 3 3 1 1 2 1 2 2 3 3 3 3
15 15 15 14 14 14 13 10 10 9 8 7 6 6 5 4 3 3 3 3 3 3 3 3 3 3 3 3 3 2 3 3 3 2 1 2 1 2 2 3 2 4 4
13 14 14 13 13 14 13 12 10 9 8 8 6 5 4 3 2 2 3 3 3 3 3 3 3 3 3 2 2 2 2 2 3 3 2 3 2 3 3 3 3 2 2
13 12 11 10 10 11 11 12 11 9 8 8 7 6 5 3 2 2 2 3 3 3 3 4 3 3 3 2 2 3 3 3 4 3 3 3 2 2 3 4 4 3 3
11 12 12 11 10 11 10 10 10 10 9 9 7 6 6 5 4 4 3 4 3 3 3 3 2 2 3 3 3 3 4 3 4 4 4 4 4 3 3 4 4 4 3
10 11 12 10 10 11 10 10 10 9 8 7 6 5 5 4 3 4 3 3 3 2 2 2 2 2 3 4 3 3 4 3 4 5 4 4 4 4 4 3 4 4 3
11 11 12 10 9 9 9 10 8 8 8 7 6 5 4 4 3 2 3 2 2 2 1 1 2 2 3 3 3 3 4 3 3 4 4 4 4 4 4 3 3 3 4
8 9 10 10 9 8 7 8 8 9 8 7 6 6 4 4 3 2 2 2 2 1 0 1 2 2 3 3 4 4 3 3 3 3 3 4 4 4 4 3 3 3 3
5 6 7 8 9 9 9 8 8 8 8 7 6 5 5 4 3 2 2 2 2 1 1 2 2 2 3 3 3 4 4 4 4 4 4 4 5 4 4 4 3 3 3
6 6 8 7 6 7 8 7 7 8 7 6 6 5 5 4 4 3 2 2 2 2 2 2 2 3 3 3 3 4 4 3 3 4 4 4 5 4 4 3 4 4 4
7 6 7 6 5 5 5 7 6 6 6 6 5 4 4 4 3 3 3 2 2 2 2 2 2 2 2 3 3 2 3 3 3 3 4 4 4 5 4 4 4 4 5
7 7 7 6 4 4 3 4 5 5 5 5 4 3 3 3 3 3 2 2 2 2 1 2 2 2 2 2 2 2 2 3 3 3 4 4 4 5 5 5 4 4 4
6 7 6 6 5 5 4 4 3 4 4 4 4 3 2 1 1 1 1 1 2 2 2 2 2 2 2 2 2 3 3 3 4 4 4 4 4 5 5 5 4 4 4
6 6 6 6 5 4 4 4 4 4 4 4 3 3 3 2 2 2 1 1 1 1 1 2 2 3 2 1 2 2 3 4 4 5 5 5 5 5 6 6 6 5 4
5 5 5 5 4 4 4 3 4 4 4 4 3 3 3 2 2 2 1 2 1 1 1 2 2 2 1 1 2 2 3 4 5 5 5 6 6 3 3 4 5 6 7
4 4 5 5 5 5 4 3 3 3 3 4 3 2 2 1 1 1 1 1 1 2 2 2 3 2 2 2 2 3 4 5 5 5 5 4 4 5 4 5 5 4 5
5 3 4 5 5 5 5 4 3 3 3 3 2 1 1 1 1 1 1 1 2 2 3 3 2 2 2 1 2 3 4 4 5 4 4 4 4 4 4 4 5 5 5
4 3 3 4 4 4 5 4 3 2 2 2 2 2 1 1 2 1 2 2 2 3 3 2 2 3 3 2 2 2 3 4 4 4 3 3 3 3 3 4 5 6 5
5 4 3 4 5 4 4 3 2 2 1 1 1 1 1 2 2 2 1 2 3 3 3 3 3 3 2 2 2 2 3 4 5 5 4 3 3 4 5 6 5 7 6
4 4 3 4 5 4 4 3 2 1 1 1 0 0 1 2 2 1 2 3 4 4 4 4 4 3 1 1 2 4 5 5 5 6 5 4 4 6 7 7 7 8 7
3 3 4 4 4 4 3 3 2 1 1 1 1 1 1 1 2 2 3 3 3 3 4 3 3 1 1 1 1 4 6 7 5 5 7 6 7 7 6 8 9 7 5
3 3 3 3 2 2 2 2 2 1 1 1 1 2 2 2 1 2 3 2 2 2 3 3 3 3 1 2 2 3 4 5 5 5 7 8 9 7 7 6 5 4 4
3 3 3 3 2 2 2 1 1 1 1 1 2 3 3 2 1 1 2 2 1 1 2 2 2 3 3 3 3 3 4 4 4 5 5 5 4 3 3 3 2 2 2
3 3 3 3 2 2 2 1 0 1 1 2 3 3 3 1 1 1 1 2 1 1 1 1 2 2 3 5 5 6 6 6 5 4 5 5 4 4 4 3 3 2 2
Wind_Direction
172 169 172 168 165 164 164 169 175 167 174 184 194 196 197 207 211 192 180 195 221 223 229 268 226 231 232 279 290 284 280 273 264 271 284 261 245 217 205 203 217 213 198
170 168 173 173 171 168 168 172 177 176 185 189 195 203 202 209 207 183 165 200 221 234 219 225 253 240 223 240 255 264 282 291 294 291 308 300 269 270 221 187 208 221 204
173 170 176 177 174 173 175 179 180 181 190 188 193 213 198 217 203 185 186 204 217 233 245 205 230 246 236 224 234 248 259 272 286 289 287 311 309 301 251 219 195 201 202
173 173 178 180 179 177 177 175 176 182 185 190 202 208 206 215 209 195 183 191 208 223 227 230 230 245 250 241 248 216 252 254 272 276 260 255 283 298 313 296 233 209 195
170 171 177 179 179 176 176 174 175 179 183 193 202 214 221 221 212 191 178 200 205 222 229 217 224 233 249 252 274 289 280 275 275 277 280 276 259 246 252 285 304 297 232
161 159 163 167 170 171 172 170 171 179 183 191 199 210 220 228 230 218 201 226 212 220 227 218 214 228 244 250 254 257 260 263 281 290 289 278 272 267 258 275 282 275 269
157 156 156 161 170 171 170 165 168 178 185 190 193 201 208 212 223 235 222 236 231 221 229 232 197 231 245 247 252 247 258 256 261 267 272 279 274 275 267 274 283 286 280
152 159 158 159 167 169 164 163 165 174 179 184 188 194 200 208 219 233 246 238 259 242 205 218 207 232 255 255 243 251 252 244 247 260 268 281 285 287 280 274 286 295 303
150 153 153 155 160 162 158 157 158 166 173 180 174 177 189 205 214 216 233 251 262 256 198 209 225 226 243 259 263 261 268 266 256 268 269 266 276 283 279 277 280 278 285
147 149 150 152 154 161 152 149 157 161 163 168 177 179 181 193 208 216 210 247 262 286 297 240 236 237 237 243 248 257 263 262 261 266 280 280 281 286 289 290 286 279 280
132 137 139 147 157 159 159 156 151 152 163 170 173 172 175 188 198 209 225 240 267 275 261 267 262 257 258 256 254 258 263 263 269 276 274 275 276 286 298 301 297 285 277
134 134 136 139 142 149 152 154 156 163 166 167 170 179 175 181 194 204 224 237 248 260 264 262 267 275 280 279 271 273 278 271 271 275 279 279 279 281 279 291 295 290 277
122 122 126 131 139 144 148 153 159 168 172 168 165 173 184 187 197 206 211 222 233 255 273 277 265 272 284 283 279 275 292 298 290 287 286 289 291 292 291 284 284 284 288
122 121 118 118 117 119 125 143 159 160 159 154 155 159 185 198 203 210 199 209 219 232 243 264 265 265 271 277 284 282 274 282 295 295 290 292 289 290 290 287 283 281 287
129 124 124 122 122 119 128 133 125 120 127 134 146 150 159 178 186 197 211 224 222 226 224 251 266 266 255 270 292 288 291 297 291 289 284 283 280 278 279 284 290 294 288
140 133 129 126 127 124 134 133 132 130 129 138 151 153 161 168 178 179 182 207 245 268 248 251 264 277 287 346 23 335 321 311 301 298 297 288 268 272 265 267 276 276 279
157 150 139 132 130 126 114 123 134 137 145 152 154 154 159 173 178 203 193 210 225 252 265 284 280 282 290 305 326 329 299 294 293 294 295 297 308 308 296 283 271 263 255
154 150 152 142 132 126 122 120 133 140 147 146 150 153 162 187 205 213 222 231 230 249 261 261 267 281 288 282 295 304 281 282 284 287 286 285 298 313 315 299 293 283 272
140 151 156 140 128 126 120 112 122 127 139 148 140 146 181 238 244 246 258 266 256 252 257 261 269 277 281 255 284 291 281 285 294 298 311 306 297 318 318 301 300 300 298
124 123 128 132 127 120 124 129 138 131 150 160 160 165 173 246 259 263 270 271 269 271 272 272 263 267 273 260 255 253 279 291 296 290 282 290 286 298 303 293 296 294 296
128 131 134 133 124 119 122 125 128 139 147 152 177 199 205 227 230 239 259 273 271 270 270 264 259 253 247 235 231 245 271 292 299 297 292 292 289 275 269 270 273 276 283
126 133 124 117 114 116 122 131 135 123 97 82 57 333 281 266 247 258 264 260 264 265 260 258 252 234 194 221 228 236 248 272 284 292 297 301 296 283 272 267 270 278 283
128 129 126 116 120 127 136 146 133 131 150 169 215 243 262 276 274 254 260 261 266 280 286 284 281 266 226 213 253 248 258 265 271 290 300 297 286 284 271 258 262 267 265
152 147 138 126 109 106 117 128 128 143 180 210 239 245 241 240 251 269 272 263 260 273 286 298 304 315 333 355 348 318 301 295 288 296 299 287 275 268 267 273 263 251 254
141 147 143 140 139 128 115 104 94 121 212 254 267 268 261 245 238 266 303 295 304 280 266 294 306 311 311 312 311 311 310 308 310 310 294 288 287 288 281 278 278 280 282
153 162 165 159 158 158 140 139 177 164 245 258 264 278 280 262 253 244 302 0 236 185 164 236 269 285 277 283 297 304 303 299 299 306 293 296 300 303 305 305 306 306 308
Height
1520 1523 1527 1529 1532 1534 1536 1538 1540 1542 1544 1546 1547 1549 1550 1552 1553 1553 1553 1554 1554 1555 1555 1555 1555 1556 1556 1556 1556 1556 1556 1556 1556 1556 1555 1554 1554 1554 1554 1553 1553 1554 1553
1517 1521 1524 1527 1530 1532 1534 1537 1539 1540 1542 1544 1546 1548 1549 1550 1552 1552 1553 1553 1553 1554 1554 1553 1554 1554 1555 1555 1555 1555 1555 1555 1555 1555 1554 1554 1554 1553 1552 1552 1552 1552 1552
1514 1518 1521 1525 1528 1530 1532 1534 1536 1538 1541 1543 1545 1547 1548 1549 1550 1551 1551 1552 1552 1552 1552 1552 1552 1553 1553 1554 1554 1553 1553 1553 1553 1554 1554 1553 1552 1551 1551 1551 1550 1550 1550
1509 1514 1518 1522 1525 1527 1530 1532 1534 1536 1539 1541 1543 1545 1546 1548 1549 1549 1550 1550 1550 1550 1550 1551 1551 1551 1552 1552 1552 1552 1552 1552 1552 1552 1552 1552 1551 1551 1550 1550 1549 1549 1548
1506 1510 1515 1518 1522 1525 1528 1530 1532 1534 1537 1539 1541 1543 1545 1546 1547 1548 1548 1549 1549 1549 1549 1549 1549 1549 1550 1550 1550 1550 1550 1550 1550 1550 1550 1550 1550 1550 1550 1548 1547 1547 1546
1503 1507 1512 1515 1519 1523 1526 1528 1530 1532 1534 1536 1539 1540 1542 1544 1545 1545 1546 1547 1548 1547 1547 1547 1546 1547 1548 1548 1548 1548 1548 1548 1548 1548 1548 1548 1548 1547 1547 1546 1545 1544 1544
1501 1505 1509 1513 1517 1520 1523 1526 1527 1529 1532 1534 1536 1537 1539 1541 1542 1543 1544 1545 1546 1545 1545 1545 1544 1545 1545 1546 1546 1546 1546 1546 1545 1545 1545 1545 1545 1545 1545 1544 1543 1542 1541
1501 1504 1507 1511 1515 1518 1520 1523 1525 1527 1529 1531 1533 1535 1536 1538 1540 1541 1542 1542 1543 1543 1543 1543 1543 1543 1543 1544 1544 1543 1543 1543 1543 1543 1543 1542 1543 1542 1542 1542 1541 1539 1538
1499 1503 1506 1510 1513 1516 1518 1520 1522 1524 1526 1528 1531 1532 1534 1536 1537 1538 1539 1540 1540 1541 1541 1540 1540 1540 1541 1541 1541 1541 1541 1541 1540 1540 1540 1540 1540 1539 1539 1539 1539 1539 1537
1498 1501 1505 1509 1513 1515 1517 1519 1520 1522 1524 1526 1528 1530 1531 1533 1534 1536 1536 1537 1537 1538 1538 1538 1538 1538 1538 1538 1538 1538 1539 1538 1538 1538 1538 1537 1537 1536 1536 1536 1536 1536 1535
1499 1502 1505 1509 1511 1514 1517 1518 1519 1521 1523 1524 1526 1528 1529 1531 1532 1533 1534 1534 1534 1535 1535 1535 1535 1535 1535 1535 1536 1536 1536 1536 1535 1535 1535 1534 1534 1533 1533 1533 1532 1532 1532
1500 1502 1505 1509 1511 1514 1515 1516 1518 1519 1521 1522 1524 1526 1527 1529 1530 1530 1531 1531 1532 1532 1533 1533 1532 1532 1533 1533 1533 1533 1533 1533 1533 1532 1532 1531 1531 1530 1529 1529 1529 1528 1528
1500 1503 1505 1508 1511 1512 1514 1515 1517 1518 1520 1521 1522 1524 1525 1526 1527 1528 1529 1529 1529 1529 1530 1530 1530 1530 1530 1530 1530 1530 1530 1530 1529 1529 1528 1528 1527 1527 1526 1526 1525 1525 1524
1500 1502 1505 1508 1510 1511 1513 1515 1516 1517 1519 1520 1520 1522 1523 1524 1525 1526 1526 1526 1526 1527 1527 1527 1527 1527 1527 1527 1527 1527 1526 1526 1526 1526 1525 1525 1524 1523 1523 1522 1522 1521 1521
1500 1503 1505 1508 1510 1511 1512 1514 1515 1516 1518 1518 1519 1520 1521 1522 1523 1523 1523 1524 1524 1524 1524 1524 1524 1525 1524 1524 1524 1524 1523 1523 1523 1522 1522 1521 1521 1520 1520 1519 1518 1518 1517
1500 1502 1504 1506 1508 1510 1511 1512 1514 1515 1516 1517 1518 1519 1520 1520 1521 1521 1521 1522 1522 1522 1522 1521 1522 1522 1522 1522 1521 1521 1520 1520 1519 1518 1518 1518 1517 1517 1516 1516 1515 1515 1514
1499 1501 1503 1505 1507 1509 1510 1511 1512 1513 1515 1515 1517 1518 1518 1519 1519 1519 1519 1519 1519 1519 1518 1518 1518 1518 1519 1518 1518 1517 1517 1516 1515 1515 1514 1514 1514 1513 1512 1511 1511 1510 1510
1498 1500 1502 1504 1506 1507 1508 1510 1511 1512 1513 1514 1514 1516 1516 1516 1517 1517 1517 1517 1516 1516 1516 1516 1516 1515 1515 1515 1515 1514 1514 1513 1512 1511 1510 1510 1509 1509 1508 1507 1507 1506 1505
1498 1500 1502 1503 1504 1506 1507 1508 1509 1510 1511 1512 1512 1513 1513 1514 1514 1514 1514 1514 1513 1513 1513 1513 1513 1513 1512 1512 1511 1511 1510 1509 1508 1507 1506 1506 1505 1505 1504 1503 1502 1502 1501
1497 1499 1501 1502 1503 1504 1506 1507 1508 1509 1509 1509 1510 1511 1511 1511 1511 1511 1511 1511 1511 1510 1510 1510 1509 1509 1509 1508 1508 1507 1506 1505 1504 1504 1503 1502 1501 1500 1500 1499 1498 1497 1496
1496 1498 1499 1501 1502 1503 1504 1505 1506 1507 1507 1508 1508 1508 1508 1507 1508 1508 1508 1508 1508 1507 1507 1507 1506 1506 1505 1504 1504 1503 1503 1502 1501 1500 1499 1498 1497 1496 1495 1495 1494 1493 1493
1495 1497 1498 1499 1501 1502 1503 1503 1504 1505 1505 1505 1505 1505 1505 1505 1505 1505 1505 1504 1504 1504 1504 1503 1503 1502 1501 1501 1500 1499 1499 1498 1497 1496 1495 1494 1493 1492 1491 1490 1490 1489 1489
1494 1496 1497 1498 1500 1500 1501 1502 1502 1503 1503 1503 1503 1503 1503 1503 1503 1502 1502 1501 1502 1501 1501 1500 1500 1499 1498 1497 1496 1496 1495 1494 1493 1492 1491 1490 1488 1487 1486 1486 1485 1484 1484
1493 1495 1496 1497 1498 1499 1500 1500 1500 1501 1501 1501 1501 1501 1500 1500 1500 1500 1499 1499 1498 1498 1498 1497 1497 1496 1495 1494 1493 1492 1491 1490 1488 1487 1486 1485 1484 1483 1482 1481 1481 1480 1480
1492 1494 1494 1495 1496 1497 1498 1498 1498 1499 1499 1499 1499 1499 1498 1498 1497 1497 1497 1496 1496 1495 1495 1494 1493 1492 1491 1490 1489 1488 1486 1485 1484 1483 1482 1481 1481 1480 1479 1478 1477 1477 1477
1491 1492 1493 1493 1494 1495 1496 1496 1496 1496 1496 1496 1496 1496 1496 1495 1494 1493 1493 1493 1493 1492 1491 1490 1490 1489 1488 1487 1486 1485 1484 1482 1482 1480 1479 1478 1478 1477 1476 1475 1474 1474 1473